[[{"header":{"parameterUnit":"m.s-1","parameterCategory":2,"la1":30.2991,"la2":30.254,"lo1":-89.0895,"lo2":-89.0444,"dy":0.0017,"dx":0.0017,"nx":28,"ny":28,"refTime":"2025-08-03T21:00:00:Z","depth":"0","parameterNumber":2,"parameterNumberName":"U-component_of_CURRENTS"},"data":[0,0,0,0,0,0,0,0,0,0,0,0,0,0,0,0,0,0,0,0,0,0,0,0,0,0,0,0,0,0,0,0,0,0,0,0,0,0,0,0,0,0,0,0,0,0,0,0,0,0,0,0,0,0,0,0,0,0,0.2144,0.2145,0,0.2189,0.219,0.219,0.2211,0.2212,0.2212,0.2212,0.216,0.2158,0.2157,0,0,0,0,0,0,0,0,0,0,0,0,0,0.2044,0.2046,0.2144,0.2145,0.2146,0.2189,0.219,0.219,0.2211,0.2212,0.2212,0.2212,0.2161,0.2159,0.2157,0,0,0,0,0,0,0,0,0,0,0,0,0,0.2085,0.2047,0.2144,0.2164,0.2167,0.2189,0.219,0.219,0.2211,0.2212,0.2212,0.2213,0.2161,0.2159,0.2156,0.2131,0,0,0.2149,0.2147,0,0,0,0,0,0,0,0,0.2083,0.2088,0.216,0.2163,0.2166,0.2198,0.2136,0.2167,0.2211,0.219,0.2212,0.2213,0.2166,0.2163,0.2167,0.2129,0.2127,0.2148,0.2147,0.2146,0.2145,0,0,0,0,0,0,0,0.208,0.2086,0.2158,0.2161,0.2165,0.2161,0.2167,0.2142,0.217,0.2192,0.2195,0.2206,0.2166,0.2169,0.2165,0.2126,0.2148,0.2146,0.2145,0.2144,0.2192,0.2194,0,0,0,0,0,0,0.2083,0.2084,0.2157,0.216,0.2129,0.2163,0.2169,0.2184,0.2173,0.2173,0.2205,0.2206,0.2173,0.2168,0.2163,0.2231,0.2146,0.2143,0.2142,0.2189,0.2192,0.2195,0,0,0,0,0,0,0.2081,0.2089,0.2155,0.2125,0.2134,0.2164,0.2181,0.2185,0.2188,0.2184,0.2182,0.2204,0.2173,0.2167,0.2157,0.2225,0.2142,0.214,0.2186,0.219,0.2194,0.2303,0,0,0,0,0,0,0.2078,0.2088,0.2092,0.2126,0.2136,0.2163,0.2181,0.2186,0.2196,0.2198,0.2182,0.2179,0.2173,0.2161,0.2155,0.222,0.2138,0.2182,0.2188,0.2193,0.2296,0.231,0.2323,0,0,0,0,0,0.2074,0.2078,0.2092,0.2101,0.2143,0.2163,0.2167,0.2188,0.2195,0.2192,0.2198,0.2179,0.2192,0.216,0.2152,0.2219,0.218,0.2186,0.2192,0.229,0.2307,0.2322,0,0,0,0,0,0,0.203,0.2082,0.2098,0.2116,0.2137,0.2168,0.2171,0.2183,0.2186,0.2189,0.2182,0.2178,0.221,0.2188,0.2153,0.2253,0.2196,0.22,0.2273,0.2289,0.2302,0.2408,0.2136,0,0,0,0,0,0.2025,0.2044,0.2086,0.2097,0.2111,0.2139,0.2148,0.2164,0.2177,0.2179,0.2173,0.2189,0.223,0.2233,0.2242,0.2263,0.2349,0.2313,0.2326,0.2338,0.2422,0.2621,0.2663,0.2216,0.2216,0.2216,0,0,0.2006,0.2041,0.2048,0.2089,0.2109,0.2137,0.2144,0.216,0.2201,0.217,0.2201,0.2217,0.2244,0.2298,0.2312,0.2284,0.2497,0.2346,0.2355,0.2436,0.2633,0.2677,0.2716,0.222,0.2219,0.2219,0,0,0.1982,0.2016,0.2024,0.2053,0.2091,0.2121,0.2126,0.2156,0.219,0.2207,0.2244,0.2323,0.2293,0.24,0.2437,0.2528,0.256,0.2498,0.2654,0.2843,0.2884,0.2921,0.3038,0.3084,0.2508,0.2509,0.2509,0,0.1956,0.1997,0.2023,0.2049,0.2099,0.2117,0.2158,0.2186,0.2211,0.2297,0.2221,0.2392,0.2381,0.2588,0.2625,0.2571,0.2649,0.2581,0.2868,0.2906,0.2942,0.3054,0.3104,0.2515,0.2514,0.2513,0.2513,0,0.1946,0.1991,0.2001,0.206,0.2102,0.2138,0.2204,0.2259,0.229,0.2355,0.2525,0.2552,0.2694,0.2688,0.2673,0.2945,0.2905,0.2858,0.2834,0.2995,0.3099,0.315,0.2523,0.2521,0.2519,0.2518,0,0,0.1885,0.1979,0.1987,0.2069,0.2133,0.2192,0.228,0.2429,0.2566,0.2595,0.2798,0.2899,0.297,0.3026,0.305,0.3203,0.3474,0.3141,0.3148,0.3273,0.3864,0.3819,0.3868,0.3472,0.3483,0.3491,0.3818,0,0.1886,0.1974,0.2011,0.213,0.2215,0.2306,0.2408,0.2548,0.2652,0.2828,0.2974,0.3117,0.308,0.3159,0.3333,0.3425,0.3621,0.3389,0.3681,0.369,0.3646,0.3932,0.383,0.4115,0.3867,0.3875,0.3881,0,0.1896,0.1974,0.2086,0.2287,0.233,0.2389,0.2665,0.2754,0.3004,0.3092,0.3315,0.3383,0.365,0.3549,0.3923,0.3767,0.3879,0.3937,0.395,0.3932,0.3745,0.3925,0.4216,0.4012,0.3959,0.3952,0.3947,0,0.1961,0.2062,0.2183,0.2235,0.2412,0.2523,0.2628,0.2861,0.3009,0.3282,0.3399,0.3703,0.3826,0.4058,0.4166,0.4076,0.4526,0.4405,0.4503,0.4494,0.449,0.4465,0.4651,0.4769,0.4768,0.4767,0.4766,0,0.204,0.2171,0.2219,0.2319,0.2502,0.2587,0.2831,0.2984,0.3202,0.3393,0.3549,0.3734,0.3961,0.4191,0.431,0.4574,0.467,0.4651,0.4643,0.4511,0.4486,0.4366,0.4247,0.4779,0.4776,0.4774,0.4772,0,0.2216,0.2219,0.239,0.2516,0.2561,0.2715,0.2925,0.3103,0.3256,0.3504,0.3583,0.3829,0.411,0.4328,0.4666,0.4736,0.4856,0.505,0.4839,0.4804,0.4666,0.4556,0.4673,0.4544,0.5256,0.5258,0.526,0,0.2394,0.2457,0.2538,0.2623,0.27,0.2882,0.3013,0.3156,0.3289,0.3548,0.3651,0.3956,0.4162,0.4629,0.4855,0.516,0.4949,0.5206,0.506,0.4768,0.4641,0.4376,0.4237,0.5068,0.5068,0.5068,0.5068,0,0.2746,0.2691,0.2804,0.2851,0.2959,0.3075,0.3213,0.3288,0.3422,0.3572,0.3736,0.3901,0.4338,0.4588,0.4965,0.5135,0.4925,0.5211,0.5021,0.4669,0.4296,0.4124,0.466,0.5067,0.5067,0.5067,0.5067,0.5067,0.3028,0.3081,0.3062,0.3126,0.3195,0.3171,0.3224,0.3305,0.3406,0.3517,0.3711,0.3923,0.4292,0.4809,0.4928,0.5034,0.4954,0.4949,0.4889,0.4681,0.4436,0.4945,0.5248,0.5249,0.525,0.5251,0.5251,0,0.3275,0.3237,0.3338,0.3291,0.3285,0.3263,0.3287,0.3261,0.3264,0.3469,0.3597,0.3984,0.4244,0.4529,0.478,0.4688,0.4508,0.4589,0.4201,0.4119,0.4717,0.458,0.4615,0.4615,0.4615,0.4615,0.4616,0.4616,0.3404,0.3436,0.3365,0.3317,0.3275,0.3153,0.3101,0.3067,0.3145,0.3297,0.3508,0.376,0.4071,0.4337,0.431,0.4277,0.391,0.3846,0.3741,0.4132,0.4156,0.4179,0.4022,0.394,0.394,0.2998,0.2991,0.2986]},{"header":{"parameterUnit":"m.s-1","parameterCategory":2,"la1":30.2991,"la2":30.254,"lo1":-89.0895,"lo2":-89.0444,"dy":0.0017,"dx":0.0017,"nx":28,"ny":28,"refTime":"2025-08-03T21:00:00:Z","depth":"0","parameterNumber":3,"parameterNumberName":"V-component_of_CURRENTS"},"data":[0,0,0,0,0,0,0,0,0,0,0,0,0,0,0,0,0,0,0,0,0,0,0,0,0,0,0,0,0,0,0,0,0,0,0,0,0,0,0,0,0,0,0,0,0,0,0,0,0,0,0,0,0,0,0,0,0,0,-0.0471,-0.0471,0,-0.0495,-0.0495,-0.0495,-0.0518,-0.0518,-0.0519,-0.0519,-0.0514,-0.0513,-0.0513,0,0,0,0,0,0,0,0,0,0,0,0,0,-0.0443,-0.0443,-0.0471,-0.0471,-0.0472,-0.0495,-0.0495,-0.0495,-0.0518,-0.0518,-0.0519,-0.052,-0.0514,-0.0513,-0.0513,0,0,0,0,0,0,0,0,0,0,0,0,0,-0.0458,-0.0443,-0.0471,-0.0488,-0.0489,-0.0495,-0.0495,-0.0495,-0.0518,-0.0519,-0.0519,-0.052,-0.0514,-0.0513,-0.0512,-0.0493,0,0,-0.051,-0.0509,0,0,0,0,0,0,0,0,-0.0457,-0.0459,-0.0485,-0.0486,-0.0489,-0.0506,-0.0483,-0.0493,-0.0518,-0.0505,-0.0519,-0.052,-0.0509,-0.0509,-0.0509,-0.0492,-0.0492,-0.051,-0.0509,-0.0509,-0.0508,0,0,0,0,0,0,0,-0.0456,-0.0458,-0.0478,-0.0485,-0.0488,-0.0493,-0.0496,-0.0485,-0.0501,-0.0506,-0.0508,-0.0514,-0.051,-0.051,-0.0509,-0.0492,-0.051,-0.0509,-0.0508,-0.0508,-0.035,-0.0346,0,0,0,0,0,0,-0.0456,-0.0457,-0.0478,-0.0479,-0.0476,-0.0493,-0.0496,-0.0498,-0.0502,-0.0504,-0.0513,-0.0515,-0.0511,-0.051,-0.0509,-0.0376,-0.0509,-0.0508,-0.0507,-0.0353,-0.0349,-0.0345,0,0,0,0,0,0,-0.0455,-0.0458,-0.0477,-0.047,-0.0474,-0.0493,-0.0495,-0.0498,-0.0498,-0.0508,-0.0509,-0.051,-0.0512,-0.051,-0.0464,-0.0381,-0.0507,-0.0507,-0.0358,-0.0352,-0.0347,-0.0181,0,0,0,0,0,0,-0.0454,-0.0457,-0.0455,-0.047,-0.0474,-0.0465,-0.0495,-0.0498,-0.0501,-0.0503,-0.0505,-0.0505,-0.0512,-0.0465,-0.0463,-0.0382,-0.0506,-0.0362,-0.0355,-0.0349,-0.0191,-0.017,-0.0153,0,0,0,0,0,-0.0453,-0.0442,-0.0454,-0.0457,-0.0471,-0.0464,-0.0465,-0.0481,-0.05,-0.0486,-0.0472,-0.0505,-0.042,-0.0462,-0.046,-0.0376,-0.0366,-0.0357,-0.0349,-0.02,-0.0174,-0.0153,0,0,0,0,0,0,-0.0423,-0.0445,-0.0458,-0.0453,-0.0454,-0.0469,-0.046,-0.0476,-0.0457,-0.0456,-0.0469,-0.0466,-0.0388,-0.041,-0.0456,-0.0309,-0.0394,-0.0385,-0.028,-0.0257,-0.0238,-0.016,-0.0505,0,0,0,0,0,-0.0417,-0.0418,-0.0433,-0.0427,-0.0426,-0.0443,-0.0444,-0.0453,-0.0444,-0.0439,-0.0431,-0.0407,-0.0353,-0.0331,-0.0303,-0.0235,-0.0249,-0.0177,-0.0157,-0.0141,-0.0074,-0.0026,0.0004,-0.0318,-0.0318,-0.0318,0,0,-0.0407,-0.0416,-0.0418,-0.0421,-0.0424,-0.0383,-0.0444,-0.0434,-0.0372,-0.0438,-0.0349,-0.0347,-0.0321,-0.0227,-0.0194,-0.0236,-0.0067,-0.0131,-0.0117,-0.0058,-0.0014,0.0017,0.0045,-0.0312,-0.0313,-0.0314,0,0,-0.0372,-0.0389,-0.0372,-0.0359,-0.0358,-0.0349,-0.0343,-0.0343,-0.0314,-0.0248,-0.0251,-0.0182,-0.0148,-0.0073,-0.0039,0.0103,0.003,0.0085,0.0253,0.0297,0.0325,0.0349,0.0325,0.0345,0.0098,0.0099,0.0099,0,-0.0357,-0.0326,-0.0363,-0.0325,-0.0282,-0.0322,-0.0255,-0.0227,-0.0203,-0.0123,-0.0196,-0.0032,-0.0045,0.0149,0.0193,0.0155,0.0129,0.0158,0.0324,0.0347,0.0369,0.0339,0.036,0.0108,0.0106,0.0106,0.0105,0,-0.0301,-0.0261,-0.0241,-0.0192,-0.0153,-0.0106,-0.0066,-0.0003,0.0018,0.0065,0.0228,0.0228,0.0344,0.0337,0.0305,0.0484,0.0394,0.0335,0.0265,0.0412,0.0369,0.0388,0.012,0.0117,0.0115,0.0112,0,0,-0.0279,-0.0214,-0.0201,-0.012,-0.0067,-0.001,0.0117,0.0258,0.0406,0.0418,0.0617,0.0688,0.0688,0.073,0.0701,0.0734,0.0819,0.0603,0.0601,0.058,0.0865,0.0802,0.0814,0.0768,0.0774,0.0778,0.0755,0,-0.0206,-0.009,-0.0075,0.0092,0.0181,0.0231,0.038,0.0504,0.06,0.0774,0.0819,0.0962,0.0838,0.0897,0.0926,0.0858,0.0884,0.0828,0.0729,0.0726,0.0655,0.0843,0.0822,0.0803,0.0772,0.0775,0.0777,0,-0.0124,-0.0047,0.0106,0.0311,0.0357,0.0452,0.0732,0.0855,0.1073,0.1154,0.1297,0.1303,0.1413,0.1247,0.1247,0.1203,0.1076,0.0985,0.0981,0.0899,0.0704,0.0662,0.0837,0.0536,0.0805,0.0803,0.0801,0,-0.0018,0.0116,0.026,0.0315,0.0504,0.0626,0.0751,0.0982,0.1163,0.1395,0.1521,0.1635,0.1673,0.1592,0.1389,0.1324,0.1328,0.1208,0.1042,0.103,0.0994,0.0973,0.0885,0.1233,0.1233,0.1233,0.1233,0,0.0113,0.0254,0.0315,0.0415,0.0646,0.0735,0.1032,0.1184,0.1434,0.1669,0.1711,0.1868,0.1753,0.1718,0.1521,0.1354,0.1432,0.1146,0.107,0.1043,0.1027,0.0743,0.0577,0.1232,0.1232,0.1232,0.1233,0,0.0276,0.0301,0.0483,0.0641,0.0707,0.088,0.117,0.1401,0.158,0.1877,0.1948,0.2059,0.2012,0.1864,0.1711,0.1512,0.1206,0.1263,0.1207,0.1129,0.0703,0.0548,0.0472,0.0358,0.1122,0.1121,0.112,0,0.0409,0.0484,0.0627,0.0736,0.0817,0.1053,0.1251,0.1474,0.17,0.1978,0.2124,0.2167,0.2219,0.199,0.1702,0.1434,0.1164,0.1186,0.11,0.0754,0.0525,0.043,0.0332,0.1075,0.1074,0.1073,0.1072,0,0.0645,0.0636,0.0762,0.0927,0.1101,0.1327,0.1582,0.1755,0.2011,0.2201,0.2379,0.2422,0.2253,0.2019,0.1671,0.1442,0.0993,0.1157,0.0852,0.0573,0.0421,0.0247,0.0942,0.1065,0.1065,0.1066,0.1066,0.1067,0.0813,0.0889,0.0967,0.1143,0.1335,0.1539,0.1713,0.1941,0.2201,0.2438,0.2492,0.2572,0.228,0.1835,0.1484,0.0862,0.0896,0.0636,0.0497,0.0448,0.0311,0.097,0.0973,0.0973,0.0973,0.0973,0.0973,0,0.0954,0.1009,0.1193,0.1356,0.1548,0.1616,0.1906,0.2035,0.2239,0.2477,0.2593,0.2557,0.2054,0.1573,0.0807,0.0297,0.0129,0.0006,-0.0146,-0.0198,0.0433,0.0399,0.0217,0.0217,0.0217,0.0218,0.0218,0.0218,0.1036,0.1158,0.1203,0.1477,0.1607,0.1809,0.193,0.2088,0.2276,0.249,0.2625,0.2744,0.2403,0.0912,-0.0155,-0.0378,-0.0755,-0.0799,-0.0979,-0.0616,-0.0569,-0.0524,-0.0595,-0.0983,-0.0984,-0.1542,-0.1548,-0.1553]}],[{"header":{"parameterUnit":"m.s-1","parameterCategory":2,"la1":30.2991,"la2":30.254,"lo1":-89.0895,"lo2":-89.0444,"dy":0.0017,"dx":0.0017,"nx":28,"ny":28,"refTime":"2025-08-03T21:00:00:Z","depth":"2","parameterNumber":2,"parameterNumberName":"U-component_of_CURRENTS"},"data":[0,0,0,0,0,0,0,0,0,0,0,0,0,0,0,0,0,0,0,0,0,0,0,0,0,0,0,0,0,0,0,0,0,0,0,0,0,0,0,0,0,0,0,0,0,0,0,0,0,0,0,0,0,0,0,0,0,0,0.2262,0.2263,0,0.2366,0.2367,0.2368,0.2394,0.2394,0.2393,0.2393,0.2471,0.2473,0.2476,0,0,0,0,0,0,0,0,0,0,0,0,0,0.2092,0.2094,0.2262,0.2264,0.2265,0.2366,0.2367,0.2368,0.2394,0.2394,0.2393,0.2393,0.247,0.2473,0.2476,0,0,0,0,0,0,0,0,0,0,0,0,0,0.2175,0.2095,0.2262,0.2292,0.2296,0.2365,0.2367,0.2368,0.2394,0.2394,0.2393,0.2392,0.2469,0.2473,0.2476,0.2512,0,0,0.2488,0.2489,0,0,0,0,0,0,0,0,0.217,0.2181,0.2286,0.229,0.2295,0.2369,0.2336,0.2416,0.2394,0.2354,0.2393,0.2392,0.2437,0.2443,0.2461,0.2516,0.2519,0.2488,0.249,0.2492,0.2493,0,0,0,0,0,0,0,0.2164,0.2177,0.2301,0.2288,0.2293,0.2303,0.2313,0.2351,0.2395,0.2358,0.236,0.2376,0.2438,0.2457,0.2463,0.252,0.2488,0.2491,0.2494,0.2495,0.2632,0.2633,0,0,0,0,0,0,0.2158,0.2172,0.2297,0.2304,0.2233,0.2306,0.2318,0.2343,0.2396,0.2404,0.2377,0.2377,0.2451,0.2458,0.2465,0.2511,0.2492,0.2496,0.2498,0.2631,0.2632,0.2634,0,0,0,0,0,0,0.2154,0.2168,0.2293,0.2241,0.2258,0.231,0.2338,0.2346,0.2369,0.2411,0.2418,0.2393,0.2451,0.246,0.2523,0.2514,0.2497,0.2501,0.2629,0.2631,0.2633,0.2601,0,0,0,0,0,0,0.2149,0.2167,0.2185,0.2241,0.2261,0.2363,0.2339,0.2348,0.2381,0.2383,0.2427,0.2433,0.2451,0.2518,0.2527,0.2518,0.2503,0.2627,0.263,0.2633,0.26,0.2602,0.2603,0,0,0,0,0,0.2142,0.2181,0.2185,0.22,0.2284,0.2366,0.2378,0.2409,0.2382,0.242,0.2442,0.2432,0.254,0.2523,0.2533,0.2525,0.2626,0.2629,0.2632,0.26,0.2601,0.2603,0,0,0,0,0,0,0.2123,0.2189,0.2194,0.2252,0.2313,0.2372,0.2409,0.2412,0.2457,0.2452,0.2464,0.2476,0.2523,0.2543,0.2523,0.2576,0.2576,0.2581,0.2547,0.2549,0.2551,0.2591,0.2507,0,0,0,0,0,0.2124,0.2168,0.2233,0.2281,0.2312,0.2353,0.2385,0.2409,0.2454,0.2472,0.2491,0.2515,0.2545,0.2563,0.2603,0.264,0.2696,0.264,0.2641,0.2642,0.2685,0.2783,0.2797,0.2644,0.2644,0.2644,0,0,0.2132,0.2172,0.2198,0.228,0.2323,0.2372,0.2372,0.2438,0.2463,0.2474,0.2511,0.253,0.2561,0.2601,0.2621,0.2614,0.2706,0.2646,0.2646,0.269,0.2788,0.2803,0.2816,0.2647,0.2646,0.2646,0,0,0.2167,0.2205,0.225,0.2299,0.2372,0.2401,0.2418,0.2478,0.2495,0.2541,0.2543,0.2577,0.2611,0.2639,0.2651,0.2693,0.2717,0.2679,0.271,0.2802,0.2816,0.2829,0.2877,0.2895,0.2671,0.2671,0.2671,0,0.2167,0.2229,0.2279,0.2329,0.2366,0.2408,0.2455,0.2488,0.2552,0.2578,0.2555,0.2633,0.2634,0.2699,0.2692,0.2694,0.2744,0.2688,0.2804,0.2819,0.2833,0.2879,0.2899,0.267,0.267,0.267,0.267,0,0.223,0.2276,0.2313,0.2376,0.2425,0.2485,0.2531,0.2572,0.2572,0.2598,0.2669,0.2694,0.2748,0.2723,0.2708,0.2796,0.2795,0.2796,0.2795,0.2846,0.2891,0.2912,0.2668,0.2668,0.2669,0.2669,0,0,0.2229,0.2334,0.2343,0.2375,0.2453,0.2502,0.2551,0.2623,0.2667,0.2703,0.2767,0.2785,0.2811,0.2832,0.2828,0.2881,0.2965,0.2869,0.2875,0.2909,0.3153,0.2944,0.2947,0.2986,0.2991,0.2995,0.3129,0,0.2259,0.2345,0.239,0.2461,0.2507,0.2559,0.2603,0.2667,0.2715,0.2789,0.2828,0.2894,0.2849,0.2877,0.2927,0.2975,0.3029,0.2928,0.3109,0.3115,0.2917,0.2968,0.2753,0.2838,0.315,0.3153,0.3156,0,0.2284,0.2345,0.2416,0.2502,0.2529,0.2568,0.2663,0.2716,0.2826,0.2872,0.2963,0.3005,0.3096,0.3045,0.3189,0.313,0.315,0.3172,0.3178,0.3025,0.2947,0.285,0.2866,0.3192,0.3189,0.3186,0.3184,0,0.2242,0.235,0.2402,0.2433,0.2541,0.2577,0.2631,0.2735,0.2812,0.2948,0.3025,0.3144,0.3218,0.3294,0.3307,0.3276,0.3451,0.3417,0.326,0.3245,0.3121,0.3085,0.3543,0.3543,0.3542,0.3542,0.3542,0,0.224,0.2279,0.2386,0.2418,0.2488,0.256,0.2649,0.2731,0.2875,0.2975,0.3073,0.3178,0.329,0.3379,0.3383,0.3373,0.3523,0.3293,0.328,0.3093,0.3055,0.3419,0.3403,0.3547,0.3546,0.3545,0.3544,0,0.2184,0.2248,0.2317,0.2434,0.2467,0.2515,0.2659,0.2738,0.2875,0.302,0.3076,0.3254,0.3339,0.3406,0.3523,0.3451,0.3473,0.343,0.3166,0.3115,0.3189,0.317,0.3295,0.329,0.3285,0.328,0.3277,0,0.2172,0.22,0.2316,0.2357,0.2409,0.2495,0.256,0.2716,0.2812,0.3044,0.3112,0.3258,0.3287,0.3359,0.3294,0.327,0.3375,0.3044,0.2925,0.3197,0.3173,0.3161,0.3149,0.2757,0.2749,0.2743,0.2738,0,0.2153,0.218,0.2237,0.2322,0.2387,0.2475,0.258,0.2659,0.2838,0.2948,0.3096,0.314,0.317,0.303,0.2958,0.2909,0.3019,0.2908,0.3346,0.2803,0.2686,0.2662,0.267,0.2684,0.2689,0.2693,0.2696,0.2699,0.2122,0.2149,0.221,0.2285,0.2363,0.2434,0.2469,0.2579,0.2684,0.2766,0.2883,0.2828,0.2852,0.2583,0.2512,0.2462,0.2633,0.2546,0.2569,0.2597,0.2461,0.2336,0.2243,0.2246,0.2248,0.225,0.2252,0,0.2075,0.2111,0.2177,0.2248,0.2298,0.2372,0.2469,0.2459,0.2505,0.2521,0.252,0.2243,0.2124,0.2175,0.2011,0.1966,0.1984,0.19,0.1953,0.2007,0.2055,0.1895,0.1526,0.1524,0.1522,0.152,0,0,0.2045,0.2062,0.2099,0.2154,0.2219,0.2243,0.2275,0.2252,0.2236,0.2059,0.1963,0.1958,0.2085,0.1771,0.173,0.1627,0.1802,0.1552,0.2136,0.2253,0.2299,0.2427,0.2238,0,0,0,0,0]},{"header":{"parameterUnit":"m.s-1","parameterCategory":2,"la1":30.2991,"la2":30.254,"lo1":-89.0895,"lo2":-89.0444,"dy":0.0017,"dx":0.0017,"nx":28,"ny":28,"refTime":"2025-08-03T21:00:00:Z","depth":"2","parameterNumber":3,"parameterNumberName":"V-component_of_CURRENTS"},"data":[0,0,0,0,0,0,0,0,0,0,0,0,0,0,0,0,0,0,0,0,0,0,0,0,0,0,0,0,0,0,0,0,0,0,0,0,0,0,0,0,0,0,0,0,0,0,0,0,0,0,0,0,0,0,0,0,0,0,-0.0428,-0.0427,0,-0.0393,-0.0393,-0.0392,-0.0412,-0.0413,-0.0414,-0.0415,-0.0404,-0.0402,-0.0401,0,0,0,0,0,0,0,0,0,0,0,0,0,-0.0483,-0.0482,-0.0428,-0.0427,-0.0427,-0.0394,-0.0393,-0.0392,-0.0412,-0.0413,-0.0414,-0.0416,-0.0404,-0.0403,-0.0401,0,0,0,0,0,0,0,0,0,0,0,0,0,-0.0453,-0.0482,-0.0428,-0.0434,-0.0435,-0.0394,-0.0393,-0.0392,-0.0411,-0.0413,-0.0415,-0.0416,-0.0405,-0.0403,-0.0401,-0.0354,0,0,-0.0395,-0.0394,0,0,0,0,0,0,0,0,-0.0455,-0.0451,-0.0433,-0.0434,-0.0434,-0.041,-0.0409,-0.0381,-0.0411,-0.0418,-0.0415,-0.0417,-0.0408,-0.0406,-0.0393,-0.0354,-0.0353,-0.0394,-0.0393,-0.0392,-0.0392,0,0,0,0,0,0,0,-0.0457,-0.0453,-0.0412,-0.0433,-0.0433,-0.043,-0.0428,-0.0403,-0.0403,-0.0418,-0.0419,-0.0418,-0.0408,-0.0394,-0.0393,-0.0353,-0.0394,-0.0393,-0.0391,-0.0391,-0.0277,-0.0275,0,0,0,0,0,0,-0.0464,-0.0454,-0.0413,-0.0411,-0.0451,-0.0428,-0.0425,-0.0415,-0.0403,-0.0403,-0.0417,-0.0419,-0.0397,-0.0395,-0.0392,-0.0333,-0.0392,-0.039,-0.0389,-0.0278,-0.0276,-0.0274,0,0,0,0,0,0,-0.0466,-0.0461,-0.0415,-0.0434,-0.0429,-0.0425,-0.0413,-0.0413,-0.0401,-0.0402,-0.0403,-0.0406,-0.0398,-0.0395,-0.0358,-0.0333,-0.0389,-0.0388,-0.0281,-0.0278,-0.0275,-0.0217,0,0,0,0,0,0,-0.0467,-0.0461,-0.045,-0.0434,-0.0428,-0.0383,-0.0412,-0.0411,-0.0398,-0.0401,-0.0392,-0.0393,-0.0399,-0.036,-0.0356,-0.0332,-0.0386,-0.0283,-0.0279,-0.0276,-0.0221,-0.0213,-0.0205,0,0,0,0,0,-0.0469,-0.0432,-0.0449,-0.0444,-0.0414,-0.0382,-0.0377,-0.038,-0.0396,-0.0378,-0.037,-0.0393,-0.0336,-0.0356,-0.0352,-0.0327,-0.0285,-0.028,-0.0276,-0.0225,-0.0214,-0.0206,0,0,0,0,0,0,-0.0435,-0.043,-0.0449,-0.041,-0.0402,-0.0386,-0.0361,-0.0372,-0.0349,-0.035,-0.0362,-0.036,-0.032,-0.0324,-0.0346,-0.0283,-0.0317,-0.0312,-0.028,-0.027,-0.0262,-0.0279,-0.0384,0,0,0,0,0,-0.0428,-0.0409,-0.0406,-0.0376,-0.0368,-0.0368,-0.0354,-0.0358,-0.034,-0.0333,-0.0325,-0.0314,-0.0296,-0.0285,-0.0266,-0.0223,-0.0267,-0.0206,-0.0198,-0.0191,-0.02,-0.025,-0.0249,-0.0261,-0.0261,-0.0261,0,0,-0.0406,-0.0402,-0.039,-0.037,-0.0361,-0.0333,-0.0362,-0.0331,-0.0308,-0.0333,-0.0285,-0.0281,-0.0277,-0.0233,-0.0217,-0.0236,-0.0205,-0.0186,-0.0181,-0.0193,-0.0246,-0.0246,-0.0245,-0.0258,-0.0259,-0.0259,0,0,-0.035,-0.0349,-0.0318,-0.0309,-0.0297,-0.0294,-0.0286,-0.0266,-0.0258,-0.0212,-0.023,-0.0218,-0.017,-0.0176,-0.0172,-0.0107,-0.0161,-0.0091,-0.0065,-0.0113,-0.0114,-0.0115,-0.0155,-0.016,-0.0089,-0.0089,-0.0089,0,-0.0324,-0.0295,-0.0301,-0.0272,-0.0261,-0.0276,-0.0242,-0.0224,-0.0195,-0.0183,-0.0188,-0.0149,-0.0149,-0.0125,-0.0103,-0.0093,-0.0126,-0.0104,-0.0106,-0.0108,-0.0111,-0.0152,-0.0159,-0.0086,-0.0086,-0.0086,-0.0087,0,-0.0252,-0.0235,-0.0208,-0.0189,-0.0174,-0.0141,-0.0134,-0.0108,-0.0103,-0.0098,-0.0066,-0.0066,-0.0051,-0.0046,-0.0052,-0.0055,-0.0074,-0.0093,-0.0139,-0.0107,-0.0151,-0.0159,-0.0081,-0.0082,-0.0083,-0.0084,0,0,-0.0168,-0.0163,-0.0153,-0.015,-0.0132,-0.0108,-0.0068,-0.0042,-0.0012,-0.0001,0.0027,0.0041,0.0024,0.0027,0.0013,-0.0031,-0.0069,-0.0062,-0.0066,-0.0116,-0.0171,-0.0189,-0.0201,-0.0091,-0.0092,-0.0093,-0.0191,0,-0.0112,-0.0069,-0.0072,-0.0025,-0.0007,-0.0013,0.003,0.0048,0.0065,0.0096,0.0066,0.01,0.0059,0.0075,0.0022,-0.0028,-0.0089,-0.0041,-0.0182,-0.0186,-0.022,-0.021,-0.0186,-0.0272,-0.02,-0.0201,-0.0202,0,-0.0037,-0.0028,0.0015,0.003,0.0044,0.0079,0.0122,0.0158,0.0181,0.0199,0.0195,0.0181,0.0152,0.0103,-0.0014,0.0023,-0.0076,-0.0143,-0.0149,-0.0198,-0.0221,-0.0294,-0.029,-0.0216,-0.0215,-0.0214,-0.0213,0,0.0006,0.004,0.0065,0.0073,0.0097,0.0128,0.0154,0.0189,0.0245,0.0263,0.0302,0.0248,0.0256,0.0118,0.0004,-0.0008,-0.0144,-0.0179,-0.0305,-0.0307,-0.0332,-0.0334,-0.031,-0.031,-0.031,-0.031,-0.0309,0,0.0061,0.0084,0.0088,0.0105,0.0162,0.0168,0.0247,0.0272,0.0334,0.0407,0.0359,0.0402,0.0258,0.0178,0.0024,-0.0143,-0.0131,-0.0308,-0.0338,-0.0306,-0.0305,-0.0295,-0.0292,-0.0313,-0.0312,-0.0312,-0.0311,0,0.0091,0.0098,0.0125,0.0153,0.018,0.0218,0.0319,0.0389,0.043,0.0522,0.054,0.0532,0.043,0.0262,0.0064,-0.0088,-0.0267,-0.0345,-0.0289,-0.0311,-0.0411,-0.0404,-0.0506,-0.0508,-0.0509,-0.051,-0.0511,0,0.0092,0.0109,0.0155,0.0199,0.0217,0.0287,0.0365,0.0436,0.0521,0.0605,0.0662,0.0608,0.0583,0.0298,0.0026,-0.0254,-0.0285,-0.0426,-0.0464,-0.0415,-0.0434,-0.0424,-0.0415,-0.0469,-0.0469,-0.047,-0.047,0,0.0079,0.0105,0.0133,0.0235,0.0316,0.0412,0.052,0.0612,0.0707,0.0797,0.0898,0.0882,0.0608,0.0357,-0.0026,-0.0221,-0.0376,-0.0446,-0.0412,-0.0416,-0.0386,-0.0402,-0.0393,-0.0474,-0.0473,-0.0473,-0.0473,-0.0473,0.0064,0.0095,0.0165,0.0276,0.0388,0.0547,0.0659,0.079,0.0953,0.1089,0.1024,0.0991,0.0682,0.0196,-0.0094,-0.0399,-0.0425,-0.0546,-0.0542,-0.0539,-0.051,-0.0484,-0.0584,-0.0584,-0.0584,-0.0585,-0.0585,0,0.0048,0.0124,0.0214,0.037,0.0533,0.059,0.0787,0.092,0.1139,0.1174,0.122,0.0895,0.0583,0.0257,-0.0203,-0.0498,-0.0506,-0.0572,-0.0519,-0.0515,-0.0512,-0.0479,-0.0547,-0.0547,-0.0547,-0.0547,0,0,0.0039,0.0139,0.0219,0.0481,0.0624,0.0854,0.0989,0.1176,0.1255,0.1314,0.126,0.1074,0.0663,0.0339,-0.0046,-0.0277,-0.032,-0.0324,-0.0335,-0.0224,-0.0215,-0.0491,-0.0437,0,0,0,0,0]}],[{"header":{"parameterUnit":"m.s-1","parameterCategory":2,"la1":30.2991,"la2":30.254,"lo1":-89.0895,"lo2":-89.0444,"dy":0.0017,"dx":0.0017,"nx":28,"ny":28,"refTime":"2025-08-03T21:00:00:Z","depth":"4","parameterNumber":2,"parameterNumberName":"U-component_of_CURRENTS"},"data":[0,0,0,0,0,0,0,0,0,0,0,0,0,0,0,0,0,0,0,0,0,0,0,0,0,0,0,0,0,0,0,0,0,0,0,0,0,0,0,0,0,0,0,0,0,0,0,0,0,0,0,0,0,0,0,0,0,0,0.088,0.0881,0,0.0872,0.0871,0.087,0.0899,0.0901,0.0903,0.0905,0.1084,0.1086,0.1089,0,0,0,0,0,0,0,0,0,0,0,0,0,0.0803,0.0803,0.088,0.0881,0.0883,0.0872,0.0871,0.0869,0.0898,0.0901,0.0904,0.0906,0.1083,0.1086,0.1089,0,0,0,0,0,0,0,0,0,0,0,0,0,0.0806,0.0804,0.088,0.0907,0.091,0.0873,0.0871,0.0869,0.0898,0.0901,0.0905,0.0908,0.1082,0.1086,0.109,0.1048,0,0,0.1102,0.1104,0,0,0,0,0,0,0,0,0.0806,0.0807,0.0902,0.0905,0.0909,0.0903,0.091,0.0943,0.0897,0.0887,0.0905,0.0909,0.1048,0.1055,0.1022,0.1056,0.1064,0.1102,0.1105,0.1106,0.1108,0,0,0,0,0,0,0,0.0806,0.0807,0.0862,0.0903,0.0908,0.088,0.0883,0.0913,0.0941,0.0888,0.0894,0.0915,0.1049,0.1018,0.1027,0.1066,0.1102,0.1106,0.1108,0.111,0.1311,0.1314,0,0,0,0,0,0,0.0839,0.0807,0.0863,0.0863,0.0881,0.088,0.0883,0.0889,0.0937,0.095,0.0913,0.0917,0.1009,0.1023,0.1034,0.1166,0.1106,0.111,0.1112,0.1308,0.1312,0.1315,0,0,0,0,0,0,0.0837,0.0843,0.0863,0.0848,0.0851,0.0881,0.0885,0.0888,0.0917,0.0956,0.097,0.095,0.1012,0.1029,0.1115,0.1168,0.1112,0.1116,0.1305,0.1309,0.1314,0.1318,0,0,0,0,0,0,0.0834,0.0841,0.086,0.085,0.0853,0.0889,0.0884,0.0886,0.0929,0.0936,0.0991,0.1007,0.1016,0.1109,0.1119,0.1173,0.1119,0.1301,0.1307,0.1312,0.1314,0.1322,0.1329,0,0,0,0,0,0.0831,0.0856,0.086,0.0868,0.0876,0.0892,0.089,0.0911,0.0929,0.0947,0.099,0.1008,0.1153,0.1113,0.1124,0.1181,0.1298,0.1305,0.1312,0.1311,0.1321,0.1329,0,0,0,0,0,0,0.0831,0.0862,0.0866,0.0899,0.0917,0.0904,0.0928,0.0938,0.0972,0.0997,0.1025,0.1043,0.1126,0.1165,0.1121,0.1262,0.1237,0.1246,0.1233,0.1243,0.125,0.1195,0.1122,0,0,0,0,0,0.0839,0.0868,0.0886,0.0913,0.0929,0.0931,0.0944,0.096,0.099,0.1007,0.1057,0.1115,0.1146,0.1208,0.1233,0.1317,0.1305,0.1372,0.1379,0.1385,0.1353,0.1386,0.1391,0.1337,0.1337,0.1337,0,0,0.0832,0.087,0.0875,0.0917,0.0925,0.0944,0.0945,0.0986,0.1007,0.1025,0.1096,0.1126,0.1166,0.1236,0.1285,0.1294,0.1399,0.1393,0.1397,0.1361,0.1393,0.1398,0.1402,0.1341,0.1341,0.134,0,0,0.0858,0.0882,0.0917,0.0935,0.0988,0.0987,0.1018,0.1044,0.1068,0.112,0.1136,0.1195,0.128,0.1303,0.1324,0.1396,0.1408,0.1454,0.1477,0.1512,0.1514,0.1517,0.151,0.1511,0.1493,0.1493,0.1493,0,0.0864,0.0902,0.0928,0.0971,0.099,0.1018,0.1044,0.1057,0.1115,0.1145,0.1164,0.1258,0.1288,0.1352,0.1369,0.1405,0.1422,0.1432,0.1515,0.1517,0.1519,0.1511,0.1513,0.1494,0.1494,0.1493,0.1493,0,0.0899,0.0937,0.0964,0.1018,0.1038,0.1072,0.1097,0.1142,0.1181,0.12,0.128,0.1306,0.1374,0.1405,0.1394,0.1458,0.1461,0.1485,0.1474,0.1523,0.1514,0.1515,0.1495,0.1495,0.1494,0.1494,0,0,0.089,0.0973,0.0985,0.1006,0.1066,0.108,0.1131,0.1176,0.1215,0.1281,0.1332,0.1371,0.141,0.1434,0.1469,0.149,0.1502,0.1504,0.1505,0.1462,0.1562,0.1495,0.1489,0.156,0.156,0.1561,0.1547,0,0.0913,0.0988,0.1026,0.107,0.109,0.1128,0.1168,0.1216,0.1257,0.132,0.1364,0.1424,0.1423,0.147,0.1491,0.1488,0.1508,0.15,0.1549,0.1548,0.1455,0.1489,0.1562,0.1548,0.1548,0.1548,0.1548,0,0.0925,0.0977,0.103,0.1088,0.1104,0.1142,0.12,0.1242,0.1324,0.1362,0.1437,0.1478,0.1523,0.1514,0.154,0.155,0.1547,0.1536,0.1537,0.1461,0.1483,0.1494,0.155,0.155,0.155,0.155,0.155,0,0.0881,0.0969,0.1013,0.1028,0.1105,0.1147,0.1198,0.1271,0.1316,0.1406,0.1453,0.1522,0.1574,0.1577,0.1577,0.1571,0.1583,0.1585,0.1517,0.1512,0.1569,0.1567,0.1589,0.1589,0.1589,0.1589,0.1589,0,0.0868,0.0897,0.1004,0.1019,0.1075,0.1138,0.1204,0.1262,0.1357,0.1418,0.1494,0.1543,0.1595,0.1626,0.1595,0.156,0.162,0.1492,0.1504,0.1576,0.1575,0.1569,0.1567,0.1589,0.1589,0.1589,0.1589,0,0.0787,0.0869,0.0904,0.1008,0.1054,0.1084,0.1209,0.1248,0.1357,0.1435,0.1478,0.1579,0.1612,0.1642,0.1644,0.1591,0.1554,0.1537,0.1593,0.1613,0.1441,0.1441,0.1418,0.1415,0.1413,0.1411,0.141,0,0.0748,0.0768,0.0874,0.0904,0.0958,0.1037,0.1097,0.1231,0.1281,0.1441,0.1472,0.1568,0.1618,0.1566,0.1589,0.1543,0.1533,0.1498,0.1451,0.1409,0.1424,0.1427,0.1429,0.1407,0.1406,0.1405,0.1405,0,0.0649,0.0698,0.0734,0.0814,0.0884,0.0947,0.1058,0.1097,0.1257,0.136,0.1448,0.1478,0.152,0.1515,0.1521,0.148,0.1499,0.1475,0.1478,0.1433,0.1396,0.1413,0.1418,0.1398,0.1399,0.1399,0.14,0,0.057,0.0569,0.0648,0.0707,0.0792,0.0861,0.0922,0.1025,0.1117,0.1317,0.1336,0.1431,0.1525,0.1484,0.1471,0.1446,0.1398,0.1331,0.134,0.1348,0.133,0.1272,0.1231,0,0,0,0,0,0.0486,0.0501,0.0541,0.0623,0.0702,0.0771,0.0903,0.0972,0.1139,0.1176,0.127,0.1309,0.133,0.1363,0.1313,0.1388,0.1374,0.1321,0.1295,0.1357,0.1366,0.135,0,0,0,0,0,0,0.0429,0.0466,0.0507,0.0559,0.0598,0.0699,0.0782,0.0887,0.093,0.1087,0.1105,0.1217,0.1243,0.1343,0.1283,0.129,0.1243,0.1378,0.1374,0.1352,0.136,0.1367,0.1353,0,0,0,0,0]},{"header":{"parameterUnit":"m.s-1","parameterCategory":2,"la1":30.2991,"la2":30.254,"lo1":-89.0895,"lo2":-89.0444,"dy":0.0017,"dx":0.0017,"nx":28,"ny":28,"refTime":"2025-08-03T21:00:00:Z","depth":"4","parameterNumber":3,"parameterNumberName":"V-component_of_CURRENTS"},"data":[0,0,0,0,0,0,0,0,0,0,0,0,0,0,0,0,0,0,0,0,0,0,0,0,0,0,0,0,0,0,0,0,0,0,0,0,0,0,0,0,0,0,0,0,0,0,0,0,0,0,0,0,0,0,0,0,0,0,0.0123,0.0123,0,0.0108,0.0108,0.0107,0.0102,0.0102,0.0102,0.0102,-0.0018,-0.0021,-0.0024,0,0,0,0,0,0,0,0,0,0,0,0,0,0.0074,0.0075,0.0123,0.0123,0.0123,0.0108,0.0108,0.0107,0.0102,0.0102,0.0102,0.0102,-0.0017,-0.0021,-0.0025,0,0,0,0,0,0,0,0,0,0,0,0,0,0.008,0.0075,0.0123,0.0119,0.0118,0.0108,0.0108,0.0107,0.0102,0.0102,0.0102,0.0102,-0.0015,-0.002,-0.0025,-0.0059,0,0,-0.004,-0.0042,0,0,0,0,0,0,0,0,0.008,0.0082,0.0119,0.0119,0.0118,0.0107,0.0046,0.0047,0.0102,0.0107,0.0102,0.0102,0.0015,0.0007,0.0005,-0.0064,-0.007,-0.0041,-0.0044,-0.0046,-0.0047,0,0,0,0,0,0,0,0.0079,0.0082,0.0116,0.0119,0.0119,0.0092,0.0094,0.0046,0.0058,0.0107,0.0107,0.0106,0.0014,0.001,0.0001,-0.0071,-0.0041,-0.0045,-0.0048,-0.005,-0.0258,-0.026,0,0,0,0,0,0,0.0087,0.0082,0.0117,0.0116,0.01,0.0093,0.0095,0.011,0.0061,0.0054,0.0106,0.0106,0.0018,0.0007,-0.0003,-0.0073,-0.0046,-0.005,-0.0053,-0.0256,-0.0259,-0.0261,0,0,0,0,0,0,0.0086,0.0091,0.0117,0.0098,0.01,0.0095,0.0111,0.011,0.0104,0.0061,0.0053,0.0101,0.0018,0.0004,-0.0056,-0.0077,-0.0053,-0.0057,-0.0252,-0.0256,-0.026,-0.0197,0,0,0,0,0,0,0.0085,0.0091,0.0099,0.0099,0.0101,0.0105,0.0111,0.0109,0.0103,0.0103,0.0053,0.0043,0.0017,-0.0049,-0.0061,-0.0083,-0.0061,-0.0249,-0.0254,-0.0259,-0.0195,-0.0198,-0.02,0,0,0,0,0,0.0083,0.01,0.01,0.0104,0.0116,0.0105,0.0103,0.0099,0.0103,0.0095,0.0058,0.0045,-0.0089,-0.0054,-0.0068,-0.0092,-0.0247,-0.0253,-0.0258,-0.0194,-0.0197,-0.02,0,0,0,0,0,0,0.009,0.0101,0.0101,0.0123,0.011,0.0104,0.0102,0.0097,0.0066,0.0062,0.0025,0.0011,-0.0049,-0.0094,-0.0054,-0.0175,-0.0177,-0.0186,-0.0124,-0.0127,-0.0129,-0.0079,-0.0065,0,0,0,0,0,0.0094,0.0106,0.0104,0.0117,0.0115,0.0106,0.0101,0.0095,0.0071,0.006,0.0024,-0.0032,-0.0085,-0.0121,-0.0172,-0.0234,-0.0254,-0.027,-0.0272,-0.0273,-0.0248,-0.03,-0.0302,-0.028,-0.028,-0.028,0,0,0.0106,0.0107,0.0118,0.0118,0.0112,0.0104,0.0104,0.0095,0.0084,0.0047,0.0013,-0.0033,-0.0104,-0.0165,-0.0199,-0.0203,-0.0296,-0.028,-0.0279,-0.0254,-0.0306,-0.0307,-0.0308,-0.0284,-0.0284,-0.0283,0,0,0.0112,0.013,0.0131,0.0122,0.0106,0.0101,0.0098,0.0083,0.0072,0.003,-0.0001,-0.005,-0.0141,-0.018,-0.0215,-0.0268,-0.0298,-0.0314,-0.0285,-0.0337,-0.0337,-0.0337,-0.037,-0.0374,-0.0322,-0.0322,-0.0322,0,0.0115,0.013,0.0127,0.0116,0.0117,0.0101,0.0099,0.0081,0.0044,0.0033,0.0019,-0.0091,-0.014,-0.0203,-0.0218,-0.0265,-0.0298,-0.0256,-0.0332,-0.0333,-0.0334,-0.0368,-0.0373,-0.032,-0.032,-0.032,-0.032,0,0.0119,0.0126,0.0126,0.0115,0.0109,0.0107,0.0088,0.0072,0.0056,0.0036,-0.0022,-0.0084,-0.0145,-0.0185,-0.021,-0.0263,-0.0284,-0.0314,-0.0304,-0.0331,-0.0368,-0.0373,-0.0316,-0.0317,-0.0318,-0.0318,0,0,0.0136,0.0132,0.0131,0.0136,0.0115,0.0118,0.0096,0.008,0.0077,0.0022,0.0006,-0.0077,-0.0101,-0.0143,-0.0196,-0.0236,-0.0271,-0.0274,-0.0278,-0.0268,-0.0377,-0.0355,-0.036,-0.0317,-0.0318,-0.0319,-0.0398,0,0.0138,0.0136,0.0131,0.0138,0.0143,0.0131,0.0122,0.01,0.0072,0.0045,-0.0016,-0.0059,-0.0094,-0.012,-0.0167,-0.0244,-0.0285,-0.0246,-0.0386,-0.0389,-0.0334,-0.0366,-0.0321,-0.0402,-0.0404,-0.0405,-0.0405,0,0.0136,0.0143,0.0152,0.0169,0.0173,0.0173,0.0177,0.0162,0.0116,0.0095,0.0043,-0.001,-0.0073,-0.0101,-0.0224,-0.0202,-0.0275,-0.0333,-0.0338,-0.0334,-0.0378,-0.0376,-0.0417,-0.0416,-0.0415,-0.0414,-0.0414,0,0.0151,0.0159,0.0177,0.0181,0.0189,0.02,0.0205,0.0177,0.0178,0.0125,0.0115,0.0023,-0.002,-0.0121,-0.0233,-0.0238,-0.0365,-0.0396,-0.0444,-0.0444,-0.0462,-0.0461,-0.0476,-0.0476,-0.0476,-0.0476,-0.0475,0,0.0154,0.0168,0.0193,0.0203,0.0247,0.0233,0.0261,0.025,0.0227,0.0229,0.0146,0.0118,-0.0027,-0.0121,-0.0225,-0.0344,-0.0367,-0.0426,-0.0461,-0.0439,-0.0435,-0.0466,-0.0464,-0.0479,-0.0478,-0.0477,-0.0477,0,0.0153,0.0162,0.0197,0.0232,0.0251,0.0281,0.0319,0.0332,0.0305,0.0301,0.0289,0.0184,0.0059,-0.0084,-0.0254,-0.0324,-0.0446,-0.0486,-0.0433,-0.0467,-0.0493,-0.0487,-0.0544,-0.0544,-0.0544,-0.0544,-0.0544,0,0.0145,0.0161,0.0233,0.0271,0.0291,0.0338,0.0371,0.0373,0.0384,0.0342,0.034,0.0221,0.0137,-0.0077,-0.0236,-0.0433,-0.0461,-0.0511,-0.0506,-0.047,-0.05,-0.0494,-0.0489,-0.0544,-0.0544,-0.0544,-0.0544,0,0.0153,0.0185,0.0235,0.031,0.0364,0.0418,0.046,0.0477,0.0469,0.045,0.0387,0.0265,0.012,-0.0066,-0.0218,-0.0362,-0.0469,-0.051,-0.0512,-0.0508,-0.047,-0.0498,-0.0493,-0.0543,-0.0543,-0.0543,-0.0543,0,0.0185,0.0225,0.0297,0.0362,0.0427,0.0474,0.0496,0.0509,0.0519,0.0471,0.0447,0.0283,0.0182,-0.003,-0.0173,-0.0308,-0.0346,-0.0371,-0.038,-0.0382,-0.0311,-0.0238,-0.0261,0,0,0,0,0,0.022,0.0271,0.0335,0.0413,0.0467,0.0497,0.0546,0.0554,0.0549,0.0521,0.0487,0.0353,0.0132,0.0021,-0.0111,-0.0183,-0.0375,-0.034,-0.041,-0.0541,-0.0541,-0.0483,0,0,0,0,0,0,0.0256,0.0328,0.035,0.0431,0.0473,0.0535,0.0563,0.0561,0.0541,0.0513,0.039,0.0335,0.0107,0.0202,-0.0113,-0.0157,-0.0212,-0.0451,-0.0453,-0.0541,-0.0541,-0.0542,-0.0482,0,0,0,0,0]}]]